Location: Mahannah Oil Field
(37.4664°N, 96.6003°W)
Time: 00:43:57
(UTC+00:00)

A-11 Canister half - Pass Details

Date: 23 January 2021
Orbit: 1525 x 1684 km, 47.3° (Epoch: 03 March)

Event Time Altitude Azimuth Distance (km) Brightness Sun altitude
Rises 03:16:27 0° 301° (WNW) 4,776 12.3 -42.8°
Reaches altitude 10° 03:19:29 10° 302° (WNW) 3,810 11.6 -43.4°
Enters shadow 03:26:28 54° 299° (WNW) 1,912 9.5 -44.7°
